| time (UTC) | temp C | wind direction | speed KPH | gust KPH | rain 1hr cm | rain 24hr cm | rain mn cm | humidity % | barometer mb |
| 20260507125049 | 18 | 128 | 1.6 | 4.8 | 0.00 | 0.00 | 0.00 | 100 | 1025.1 |
| 20260507124557 | 18 | 128 | 1.6 | 4.8 | 0.00 | 0.00 | 0.00 | 100 | 1025.1 |
| 20260507124048 | 18 | 128 | 1.6 | 4.8 | 0.00 | 0.00 | 0.00 | 100 | 1025.3 |
| 20260507123548 | 18 | 128 | 1.6 | 4.8 | 0.00 | 0.00 | 0.00 | 100 | 1025.3 |
| 20260507123055 | 18 | 128 | 1.6 | 3.2 | 0.00 | 0.00 | 0.00 | 100 | 1025.3 |
| 20260507122548 | 18 | 128 | 1.6 | 3.2 | 0.00 | 0.00 | 0.00 | 100 | 1025.4 |
| 20260507122049 | 18 | 128 | 1.6 | 3.2 | 0.00 | 0.00 | 0.00 | 100 | 1025.4 |
| 20260507121557 | 18 | 128 | 1.6 | 4.8 | 0.00 | 0.00 | 0.00 | 100 | 1025.4 |
| 20260507121049 | 18 | 128 | 1.6 | 4.8 | 0.00 | 0.00 | 0.00 | 100 | 1025.4 |
| 20260507120548 | 18 | 128 | 1.6 | 4.8 | 0.00 | 0.00 | 0.00 | 100 | 1025.6 |
| 20260507120053 | 18 | 128 | 1.6 | 4.8 | 0.00 | 0.00 | 0.00 | 100 | 1025.6 |
| 20260507115633 | 18 | 128 | 1.6 | 4.8 | 0.00 | 0.00 | 0.00 | 100 | 1025.6 |
| 20260507115048 | 18 | 128 | 1.6 | 3.2 | 0.00 | 0.00 | 0.00 | 100 | 1025.6 |
| 20260507114559 | 18 | 128 | 1.6 | 3.2 | 0.00 | 0.00 | 0.00 | 100 | 1025.7 |
| 20260507114048 | 19 | 128 | 1.6 | 3.2 | 0.00 | 0.00 | 0.00 | 100 | 1025.8 |
| 20260507113552 | 18 | 128 | 1.6 | 3.2 | 0.00 | 0.00 | 0.00 | 100 | 1026.0 |
| 20260507113052 | 18 | 128 | 1.6 | 3.2 | 0.00 | 0.00 | 0.00 | 100 | 1026.0 |
| 20260507112549 | 19 | 128 | 1.6 | 3.2 | 0.00 | 0.00 | 0.00 | 100 | 1025.9 |
| 20260507112051 | 19 | 128 | 1.6 | 3.2 | 0.00 | 0.00 | 0.00 | 100 | 1026.1 |
| 20260507111555 | 19 | 128 | 1.6 | 3.2 | 0.00 | 0.00 | 0.00 | 100 | 1026.1 |
| 20260507111049 | 19 | 128 | 1.6 | 3.2 | 0.00 | 0.00 | 0.00 | 100 | 1026.2 |
| 20260507110549 | 19 | 128 | 1.6 | 3.2 | 0.00 | 0.00 | 0.00 | 100 | 1026.2 |
| 20260507105548 | 19 | 128 | 1.6 | 3.2 | 0.00 | 0.00 | 0.00 | 100 | 1026.2 |
| 20260507105049 | 19 | 128 | 1.6 | 3.2 | 0.00 | 0.00 | 0.00 | 100 | 1026.2 |
| 20260507104600 | 19 | 128 | 1.6 | 3.2 | 0.00 | 0.00 | 0.00 | 100 | 1026.2 |
| 20260507104053 | 20 | 128 | 1.6 | 3.2 | 0.00 | 0.00 | 0.00 | 100 | 1026.3 |
| 20260507103549 | 20 | 128 | 1.6 | 3.2 | 0.00 | 0.00 | 0.00 | 100 | 1026.2 |
| 20260507103128 | 20 | 128 | 1.6 | 3.2 | 0.00 | 0.00 | 0.00 | 100 | 1026.2 |
| 20260507102548 | 20 | 128 | 1.6 | 3.2 | 0.00 | 0.00 | 0.00 | 100 | 1026.3 |
| 20260507102049 | 20 | 128 | 1.6 | 4.8 | 0.00 | 0.00 | 0.00 | 100 | 1026.3 |
| 20260507101551 | 20 | 128 | 1.6 | 4.8 | 0.00 | 0.00 | 0.00 | 100 | 1026.4 |
| 20260507101048 | 20 | 128 | 1.6 | 4.8 | 0.00 | 0.00 | 0.00 | 100 | 1026.3 |
| 20260507100551 | 20 | 128 | 1.6 | 6.4 | 0.00 | 0.00 | 0.00 | 100 | 1026.3 |
| 20260507100106 | 20 | 128 | 1.6 | 6.4 | 0.00 | 0.00 | 0.00 | 100 | 1026.4 |
| 20260507095548 | 20 | 128 | 3.2 | 6.4 | 0.00 | 0.00 | 0.00 | 100 | 1026.5 |
| 20260507095048 | 20 | 127 | 1.6 | 4.8 | 0.00 | 0.00 | 0.00 | 100 | 1026.5 |
| 20260507094550 | 20 | 126 | 1.6 | 4.8 | 0.00 | 0.00 | 0.00 | 100 | 1026.5 |
| 20260507094049 | 20 | 126 | 1.6 | 3.2 | 0.00 | 0.00 | 0.00 | 100 | 1026.5 |
| 20260507093549 | 20 | 126 | 1.6 | 6.4 | 0.00 | 0.00 | 0.00 | 100 | 1026.5 |
| 20260507093052 | 20 | 126 | 1.6 | 6.4 | 0.00 | 0.00 | 0.00 | 100 | 1026.5 |
| 20260507092549 | 20 | 119 | 1.6 | 4.8 | 0.00 | 0.00 | 0.00 | 100 | 1026.6 |
| 20260507092048 | 20 | 117 | 1.6 | 4.8 | 0.00 | 0.00 | 0.00 | 100 | 1026.6 |
| 20260507091554 | 20 | 108 | 1.6 | 4.8 | 0.00 | 0.00 | 0.00 | 100 | 1026.7 |
| 20260507091049 | 20 | 108 | 1.6 | 4.8 | 0.00 | 0.00 | 0.00 | 100 | 1026.6 |
| 20260507090552 | 20 | 107 | 1.6 | 4.8 | 0.00 | 0.00 | 0.00 | 100 | 1026.7 |
| 20260507090057 | 20 | 104 | 1.6 | 4.8 | 0.00 | 0.00 | 0.00 | 100 | 1026.7 |
| 20260507085550 | 20 | 97 | 1.6 | 3.2 | 0.00 | 0.00 | 0.00 | 100 | 1026.7 |
| 20260507085053 | 20 | 97 | 1.6 | 4.8 | 0.00 | 0.00 | 0.00 | 100 | 1026.9 |
| 20260507084604 | 20 | 96 | 1.6 | 4.8 | 0.00 | 0.00 | 0.00 | 100 | 1026.9 |
| 20260507084048 | 20 | 96 | 1.6 | 4.8 | 0.00 | 0.00 | 0.00 | 100 | 1027.0 |
| 20260507083548 | 20 | 96 | 1.6 | 4.8 | 0.00 | 0.00 | 0.00 | 100 | 1026.9 |
| 20260507083053 | 20 | 76 | 0.0 | 3.2 | 0.00 | 0.00 | 0.00 | 100 | 1026.9 |
| 20260507082552 | 20 | 76 | 1.6 | 3.2 | 0.00 | 0.00 | 0.00 | 100 | 1026.9 |
| 20260507082051 | 20 | 76 | 1.6 | 3.2 | 0.00 | 0.00 | 0.00 | 100 | 1026.8 |
| 20260507081558 | 21 | 76 | 1.6 | 3.2 | 0.00 | 0.00 | 0.00 | 100 | 1026.8 |
| 20260507081051 | 21 | 76 | 1.6 | 3.2 | 0.00 | 0.00 | 0.00 | 100 | 1026.7 |
| 20260507080551 | 21 | 76 | 0.0 | 4.8 | 0.00 | 0.00 | 0.00 | 100 | 1026.7 |
| 20260507080056 | 21 | 76 | 1.6 | 4.8 | 0.00 | 0.00 | 0.00 | 100 | 1026.7 |
| 20260507075551 | 21 | 76 | 1.6 | 4.8 | 0.00 | 0.00 | 0.00 | 100 | 1026.8 |
| 20260507075051 | 21 | 59 | 1.6 | 3.2 | 0.00 | 0.00 | 0.00 | 100 | 1026.7 |
| 20260507074600 | 21 | 59 | 1.6 | 3.2 | 0.00 | 0.00 | 0.00 | 100 | 1026.6 |
| 20260507074050 | 21 | 59 | 1.6 | 3.2 | 0.00 | 0.00 | 0.00 | 100 | 1026.6 |
| 20260507073551 | 21 | 59 | 0.0 | 3.2 | 0.00 | 0.00 | 0.00 | 100 | 1026.6 |
| 20260507073054 | 21 | 59 | 0.0 | 3.2 | 0.00 | 0.00 | 0.00 | 100 | 1026.5 |
| 20260507072551 | 21 | 59 | 0.0 | 0.0 | 0.00 | 0.00 | 0.00 | 100 | 1026.4 |
| 20260507072053 | 21 | 0 | 0.0 | 0.0 | 0.00 | 0.00 | 0.00 | 100 | 1026.4 |
| 20260507071605 | 21 | 0 | 0.0 | 0.0 | 0.00 | 0.00 | 0.00 | 100 | 1026.3 |
| 20260507071051 | 21 | 0 | 0.0 | 0.0 | 0.00 | 0.00 | 0.00 | 100 | 1026.2 |
| 20260507070551 | 21 | 0 | 0.0 | 0.0 | 0.00 | 0.00 | 0.00 | 100 | 1026.1 |
| 20260507070106 | 21 | 0 | 0.0 | 0.0 | 0.00 | 0.00 | 0.00 | 100 | 1026.0 |
| 20260507065551 | 21 | 0 | 0.0 | 0.0 | 0.00 | 0.00 | 0.00 | 100 | 1025.9 |
| 20260507065054 | 21 | 0 | 0.0 | 0.0 | 0.00 | 0.00 | 0.00 | 100 | 1025.8 |
| 20260507064557 | 21 | 0 | 0.0 | 0.0 | 0.00 | 0.00 | 0.00 | 100 | 1025.8 |
| 20260507064051 | 21 | 0 | 0.0 | 0.0 | 0.00 | 0.00 | 0.00 | 100 | 1025.7 |
| 20260507063551 | 21 | 0 | 0.0 | 1.6 | 0.00 | 0.00 | 0.00 | 100 | 1025.7 |
| 20260507063057 | 22 | 0 | 0.0 | 3.2 | 0.00 | 0.00 | 0.00 | 100 | 1025.6 |
| 20260507062555 | 22 | 0 | 0.0 | 3.2 | 0.00 | 0.00 | 0.00 | 100 | 1025.5 |
| 20260507062051 | 22 | 59 | 0.0 | 3.2 | 0.00 | 0.00 | 0.00 | 100 | 1025.5 |
| 20260507061550 | 22 | 0 | 0.0 | 3.2 | 0.00 | 0.00 | 0.00 | 100 | 1025.4 |
| 20260507061052 | 22 | 0 | 0.0 | 3.2 | 0.00 | 0.00 | 0.00 | 100 | 1025.4 |
| 20260507060547 | 22 | 0 | 0.0 | 3.2 | 0.00 | 0.00 | 0.00 | 100 | 1025.3 |
| 20260507060058 | 22 | 0 | 0.0 | 3.2 | 0.00 | 0.00 | 0.00 | 100 | 1025.3 |
| 20260507055551 | 22 | 0 | 0.0 | 3.2 | 0.00 | 0.00 | 0.00 | 100 | 1025.2 |
| 20260507055051 | 22 | 57 | 0.0 | 3.2 | 0.00 | 0.00 | 0.00 | 100 | 1025.1 |
| 20260507054609 | 22 | 0 | 0.0 | 1.6 | 0.00 | 0.00 | 0.00 | 100 | 1025.1 |
| 20260507054048 | 23 | 0 | 0.0 | 1.6 | 0.00 | 0.00 | 0.00 | 100 | 1025.0 |
| 20260507053643 | 23 | 0 | 0.0 | 4.8 | 0.00 | 0.00 | 0.00 | 100 | 1024.9 |
| 20260507053107 | 23 | 57 | 0.0 | 4.8 | 0.00 | 0.00 | 0.00 | 100 | 1024.8 |
| 20260507052548 | 23 | 0 | 0.0 | 4.8 | 0.00 | 0.00 | 0.00 | 100 | 1024.7 |
| 20260507052051 | 23 | 0 | 0.0 | 8.0 | 0.00 | 0.00 | 0.00 | 100 | 1024.7 |
| 20260507051600 | 23 | 0 | 1.6 | 8.0 | 0.00 | 0.00 | 0.00 | 100 | 1024.6 |
| 20260507051047 | 23 | 0 | 0.0 | 6.4 | 0.00 | 0.00 | 0.00 | 100 | 1024.5 |
| 20260507050549 | 23 | 106 | 0.0 | 4.8 | 0.00 | 0.00 | 0.00 | 100 | 1024.5 |
| 20260507050058 | 23 | 0 | 0.0 | 0.0 | 0.00 | 0.00 | 0.00 | 100 | 1024.4 |
| 20260507045548 | 23 | 0 | 0.0 | 1.6 | 0.00 | 0.00 | 0.00 | 100 | 1024.4 |
| 20260507045051 | 23 | 0 | 0.0 | 4.8 | 0.00 | 0.00 | 0.00 | 100 | 1024.3 |
| 20260507044603 | 23 | 0 | 0.0 | 4.8 | 0.00 | 0.00 | 0.00 | 100 | 1024.3 |
| 20260507044048 | 23 | 35 | 1.6 | 4.8 | 0.00 | 0.00 | 0.00 | 100 | 1024.2 |
| 20260507043548 | 23 | 35 | 1.6 | 4.8 | 0.00 | 0.00 | 0.00 | 100 | 1024.2 |
| 20260507043054 | 23 | 35 | 0.0 | 4.8 | 0.00 | 0.00 | 0.00 | 100 | 1024.0 |
| 20260507042551 | 23 | 35 | 1.6 | 4.8 | 0.00 | 0.00 | 0.00 | 100 | 1024.1 |
| 20260507042051 | 23 | 0 | 0.0 | 4.8 | 0.00 | 0.00 | 0.00 | 100 | 1024.0 |
| 20260507041607 | 23 | 29 | 1.6 | 8.0 | 0.00 | 0.00 | 0.00 | 100 | 1023.9 |
| 20260507041052 | 23 | 29 | 3.2 | 8.0 | 0.00 | 0.00 | 0.00 | 100 | 1024.0 |
| 20260507040551 | 23 | 11 | 4.8 | 8.0 | 0.00 | 0.00 | 0.00 | 100 | 1023.8 |
| 20260507040056 | 23 | 59 | 3.2 | 8.0 | 0.00 | 0.00 | 0.00 | 100 | 1023.8 |
| 20260507035549 | 23 | 43 | 1.6 | 8.0 | 0.00 | 0.00 | 0.00 | 100 | 1023.7 |
| 20260507035051 | 23 | 57 | 3.2 | 8.0 | 0.00 | 0.00 | 0.00 | 100 | 1023.6 |
| 20260507034600 | 23 | 0 | 1.6 | 8.0 | 0.00 | 0.00 | 0.00 | 100 | 1023.5 |
| 20260507034051 | 23 | 59 | 0.0 | 12.9 | 0.00 | 0.00 | 0.00 | 100 | 1023.6 |
| 20260507033548 | 23 | 0 | 3.2 | 12.9 | 0.00 | 0.00 | 0.00 | 100 | 1023.5 |
| 20260507033057 | 23 | 42 | 4.8 | 12.9 | 0.00 | 0.00 | 0.00 | 100 | 1023.4 |
| 20260507032550 | 23 | 57 | 1.6 | 9.7 | 0.00 | 0.00 | 0.00 | 100 | 1023.3 |
| 20260507032051 | 23 | 78 | 1.6 | 9.7 | 0.00 | 0.00 | 0.00 | 100 | 1023.4 |
| 20260507031555 | 23 | 0 | 1.6 | 12.9 | 0.00 | 0.00 | 0.00 | 100 | 1023.2 |
| 20260507031051 | 24 | 74 | 4.8 | 12.9 | 0.00 | 0.00 | 0.00 | 100 | 1023.4 |
| 20260507030548 | 24 | 35 | 6.4 | 12.9 | 0.00 | 0.00 | 0.00 | 100 | 1023.2 |
| 20260507030105 | 24 | 360 | 4.8 | 12.9 | 0.00 | 0.00 | 0.00 | 100 | 1023.1 |
| 20260507025550 | 25 | 58 | 3.2 | 14.5 | 0.00 | 0.00 | 0.00 | 100 | 1023.2 |
| 20260507025048 | 24 | 360 | 6.4 | 14.5 | 0.00 | 0.00 | 0.00 | 100 | 1023.1 |
| 20260507024559 | 24 | 36 | 3.2 | 14.5 | 0.00 | 0.00 | 0.00 | 100 | 1023.2 |
| 20260507024049 | 24 | 338 | 3.2 | 12.9 | 0.00 | 0.00 | 0.00 | 100 | 1023.1 |
| 20260507023554 | 25 | 59 | 6.4 | 16.1 | 0.00 | 0.00 | 0.00 | 100 | 1023.0 |
| 20260507023150 | 25 | 13 | 4.8 | 16.1 | 0.00 | 0.00 | 0.00 | 100 | 1023.2 |
| 20260507022548 | 24 | 91 | 1.6 | 11.3 | 0.00 | 0.00 | 0.00 | 100 | 1023.1 |
| 20260507022051 | 24 | 96 | 4.8 | 14.5 | 0.00 | 0.00 | 0.00 | 100 | 1023.1 |
| 20260507021622 | 25 | 32 | 4.8 | 16.1 | 0.00 | 0.00 | 0.00 | 100 | 1023.1 |
| 20260507021050 | 25 | 23 | 6.4 | 16.1 | 0.00 | 0.00 | 0.00 | 100 | 1023.1 |
| 20260507020551 | 25 | 5 | 4.8 | 14.5 | 0.00 | 0.00 | 0.00 | 100 | 1023.1 |
| 20260507020112 | 25 | 34 | 6.4 | 14.5 | 0.00 | 0.00 | 0.00 | 100 | 1023.2 |
| 20260507015554 | 25 | 346 | 6.4 | 14.5 | 0.00 | 0.00 | 0.00 | 100 | 1023.2 |
| 20260507015048 | 25 | 37 | 8.0 | 14.5 | 0.00 | 0.00 | 0.00 | 100 | 1023.2 |
| 20260507014620 | 25 | 22 | 6.4 | 14.5 | 0.00 | 0.00 | 0.00 | 100 | 1023.2 |
| 20260507014049 | 25 | 33 | 6.4 | 14.5 | 0.00 | 0.00 | 0.00 | 100 | 1023.4 |
| 20260507013550 | 25 | 9 | 4.8 | 14.5 | 0.00 | 0.00 | 0.00 | 100 | 1023.4 |
| 20260507013053 | 25 | 352 | 8.0 | 14.5 | 0.00 | 0.00 | 0.00 | 100 | 1023.3 |
| 20260507012549 | 25 | 22 | 6.4 | 17.7 | 0.00 | 0.00 | 0.00 | 100 | 1023.2 |
| 20260507012049 | 25 | 5 | 8.0 | 17.7 | 0.00 | 0.00 | 0.00 | 100 | 1023.4 |
| 20260507011558 | 25 | 50 | 8.0 | 16.1 | 0.00 | 0.00 | 0.00 | 100 | 1023.4 |
| 20260507011048 | 26 | 341 | 8.0 | 16.1 | 0.00 | 0.00 | 0.00 | 100 | 1023.3 |
| 20260507010548 | 25 | 5 | 8.0 | 16.1 | 0.00 | 0.00 | 0.00 | 100 | 1023.4 |
| 20260507010052 | 26 | 40 | 8.0 | 17.7 | 0.00 | 0.00 | 0.00 | 100 | 1023.4 |
| 20260507005551 | 26 | 348 | 11.3 | 17.7 | 0.00 | 0.00 | 0.00 | 100 | 1023.4 |
| 20260507005052 | 26 | 5 | 4.8 | 19.3 | 0.00 | 0.00 | 0.00 | 100 | 1023.4 |
| 20260507004555 | 26 | 49 | 4.8 | 19.3 | 0.00 | 0.00 | 0.00 | 100 | 1023.3 |
| 20260507004048 | 26 | 57 | 4.8 | 14.5 | 0.00 | 0.00 | 0.00 | 100 | 1023.4 |
| 20260507003553 | 27 | 33 | 6.4 | 14.5 | 0.00 | 0.00 | 0.00 | 100 | 1023.4 |
| 20260507003051 | 27 | 352 | 6.4 | 14.5 | 0.00 | 0.00 | 0.00 | 100 | 1023.4 |
| 20260507002551 | 27 | 11 | 4.8 | 14.5 | 0.00 | 0.00 | 0.00 | 100 | 1023.4 |
| 20260507002048 | 27 | 103 | 6.4 | 14.5 | 0.00 | 0.00 | 0.00 | 100 | 1023.5 |
| 20260507001601 | 27 | 360 | 8.0 | 16.1 | 0.00 | 0.00 | 0.00 | 100 | 1023.6 |
| 20260507001048 | 26 | 55 | 4.8 | 16.1 | 0.00 | 0.00 | 0.00 | 100 | 1023.6 |
| 20260507000550 | 27 | 29 | 8.0 | 16.1 | 0.00 | 0.00 | 0.00 | 100 | 1023.7 |
| 20260507000121 | 26 | 27 | 6.4 | 14.5 | 0.00 | 0.00 | 0.00 | 100 | 1023.7 |
| 20260506235548 | 26 | 346 | 6.4 | 14.5 | 0.00 | 0.00 | 0.00 | 100 | 1023.7 |
| 20260506235050 | 26 | 24 | 4.8 | 14.5 | 0.00 | 0.00 | 0.00 | 100 | 1023.6 |
| 20260506234613 | 26 | 34 | 8.0 | 16.1 | 0.00 | 0.00 | 0.00 | 100 | 1023.7 |
| 20260506234051 | 26 | 67 | 8.0 | 16.1 | 0.00 | 0.00 | 0.00 | 100 | 1023.7 |
| 20260506233550 | 27 | 17 | 6.4 | 17.7 | 0.00 | 0.00 | 0.00 | 100 | 1023.7 |
| 20260506233052 | 27 | 37 | 6.4 | 17.7 | 0.00 | 0.00 | 0.00 | 100 | 1023.8 |
| 20260506232548 | 27 | 19 | 9.7 | 17.7 | 0.00 | 0.00 | 0.00 | 100 | 1023.8 |
| 20260506232050 | 28 | 48 | 8.0 | 20.9 | 0.00 | 0.00 | 0.00 | 100 | 1023.9 |
| 20260506231555 | 28 | 352 | 8.0 | 20.9 | 0.00 | 0.00 | 0.00 | 100 | 1023.9 |
| 20260506231050 | 28 | 32 | 9.7 | 20.9 | 0.00 | 0.00 | 0.00 | 100 | 1023.8 |
| 20260506230549 | 28 | 22 | 9.7 | 17.7 | 0.00 | 0.00 | 0.00 | 100 | 1023.9 |
| 20260506225550 | 28 | 14 | 9.7 | 19.3 | 0.00 | 0.00 | 0.00 | 100 | 1023.8 |
| 20260506225050 | 28 | 5 | 6.4 | 19.3 | 0.00 | 0.00 | 0.00 | 100 | 1023.9 |
| 20260506224555 | 28 | 351 | 8.0 | 16.1 | 0.00 | 0.00 | 0.00 | 100 | 1023.9 |
| 20260506224050 | 28 | 47 | 3.2 | 11.3 | 0.00 | 0.00 | 0.00 | 100 | 1024.0 |
| 20260506223550 | 27 | 53 | 3.2 | 11.3 | 0.00 | 0.00 | 0.00 | 100 | 1024.0 |
| 20260506223052 | 27 | 65 | 4.8 | 16.1 | 0.00 | 0.00 | 0.00 | 100 | 1024.0 |
| 20260506222554 | 27 | 61 | 8.0 | 16.1 | 0.00 | 0.00 | 0.00 | 100 | 1024.0 |
| 20260506222051 | 27 | 49 | 4.8 | 14.5 | 0.00 | 0.00 | 0.00 | 100 | 1024.0 |
| 20260506221604 | 27 | 23 | 4.8 | 17.7 | 0.00 | 0.00 | 0.00 | 100 | 1024.1 |
| 20260506221050 | 27 | 350 | 6.4 | 17.7 | 0.00 | 0.00 | 0.00 | 100 | 1024.0 |
| 20260506220550 | 27 | 22 | 3.2 | 14.5 | 0.00 | 0.00 | 0.00 | 100 | 1024.2 |
| 20260506220056 | 27 | 347 | 3.2 | 16.1 | 0.00 | 0.00 | 0.00 | 100 | 1024.3 |
| 20260506215550 | 27 | 351 | 4.8 | 16.1 | 0.00 | 0.00 | 0.00 | 100 | 1024.5 |
| 20260506215051 | 27 | 5 | 6.4 | 12.9 | 0.00 | 0.00 | 0.00 | 100 | 1024.6 |
| 20260506214605 | 27 | 47 | 6.4 | 12.9 | 0.00 | 0.00 | 0.00 | 100 | 1024.8 |
| 20260506214050 | 27 | 28 | 6.4 | 12.9 | 0.00 | 0.00 | 0.00 | 100 | 1024.8 |
| 20260506213552 | 27 | 0 | 3.2 | 11.3 | 0.00 | 0.00 | 0.00 | 100 | 1024.8 |
| 20260506213058 | 27 | 77 | 3.2 | 12.9 | 0.00 | 0.00 | 0.00 | 100 | 1024.9 |
| 20260506212550 | 27 | 34 | 4.8 | 12.9 | 0.00 | 0.00 | 0.00 | 100 | 1024.9 |
| 20260506212048 | 27 | 339 | 4.8 | 12.9 | 0.00 | 0.00 | 0.00 | 100 | 1024.8 |
| 20260506211558 | 26 | 13 | 3.2 | 14.5 | 0.00 | 0.00 | 0.00 | 100 | 1024.8 |
| 20260506211051 | 26 | 28 | 6.4 | 14.5 | 0.00 | 0.00 | 0.00 | 100 | 1025.0 |
| 20260506210550 | 26 | 42 | 3.2 | 14.5 | 0.00 | 0.00 | 0.00 | 100 | 1025.0 |
| 20260506210057 | 26 | 39 | 6.4 | 16.1 | 0.00 | 0.00 | 0.00 | 100 | 1025.1 |
| 20260506205549 | 26 | 32 | 9.7 | 16.1 | 0.00 | 0.00 | 0.00 | 100 | 1025.1 |
| 20260506205049 | 26 | 355 | 6.4 | 16.1 | 0.00 | 0.00 | 0.00 | 100 | 1025.1 |
| 20260506204556 | 26 | 36 | 6.4 | 17.7 | 0.00 | 0.00 | 0.00 | 100 | 1025.2 |
| 20260506204050 | 26 | 36 | 6.4 | 17.7 | 0.00 | 0.00 | 0.00 | 100 | 1025.1 |
| 20260506203550 | 26 | 347 | 3.2 | 14.5 | 0.00 | 0.00 | 0.00 | 100 | 1025.2 |
| 20260506203059 | 25 | 40 | 4.8 | 14.5 | 0.00 | 0.00 | 0.00 | 100 | 1025.2 |
| 20260506202549 | 25 | 56 | 4.8 | 14.5 | 0.00 | 0.00 | 0.00 | 100 | 1025.1 |
| 20260506202052 | 26 | 25 | 6.4 | 14.5 | 0.00 | 0.00 | 0.00 | 100 | 1025.0 |
| 20260506201551 | 26 | 28 | 6.4 | 14.5 | 0.00 | 0.00 | 0.00 | 100 | 1025.0 |
| 20260506201050 | 26 | 74 | 4.8 | 12.9 | 0.00 | 0.00 | 0.00 | 100 | 1024.9 |
| 20260506200550 | 26 | 58 | 6.4 | 14.5 | 0.00 | 0.00 | 0.00 | 100 | 1024.9 |
| 20260506200054 | 26 | 23 | 6.4 | 14.5 | 0.00 | 0.00 | 0.00 | 100 | 1024.9 |
| 20260506195550 | 26 | 46 | 8.0 | 14.5 | 0.00 | 0.00 | 0.00 | 100 | 1024.9 |
| 20260506195050 | 26 | 15 | 4.8 | 11.3 | 0.00 | 0.00 | 0.00 | 100 | 1024.9 |
| 20260506194556 | 26 | 55 | 4.8 | 8.0 | 0.00 | 0.00 | 0.00 | 100 | 1024.9 |
| 20260506194050 | 25 | 52 | 3.2 | 12.9 | 0.00 | 0.00 | 0.00 | 100 | 1025.0 |
| 20260506193550 | 25 | 40 | 3.2 | 12.9 | 0.00 | 0.00 | 0.00 | 100 | 1025.2 |
| 20260506193058 | 26 | 53 | 4.8 | 11.3 | 0.00 | 0.00 | 0.00 | 100 | 1025.2 |
| 20260506192550 | 25 | 17 | 3.2 | 9.7 | 0.00 | 0.00 | 0.00 | 100 | 1025.2 |
| 20260506192050 | 25 | 42 | 4.8 | 8.0 | 0.00 | 0.00 | 0.00 | 100 | 1025.2 |
| 20260506191604 | 25 | 0 | 0.0 | 11.3 | 0.00 | 0.00 | 0.00 | 100 | 1025.1 |
| 20260506191053 | 25 | 0 | 4.8 | 11.3 | 0.00 | 0.00 | 0.00 | 100 | 1025.1 |
| 20260506190550 | 25 | 30 | 3.2 | 8.0 | 0.00 | 0.00 | 0.00 | 100 | 1025.2 |
| 20260506190054 | 25 | 36 | 0.0 | 6.4 | 0.00 | 0.00 | 0.00 | 100 | 1025.2 |
| 20260506185552 | 25 | 0 | 0.0 | 0.0 | 0.00 | 0.00 | 0.00 | 100 | 1025.4 |
| 20260506185050 | 25 | 0 | 0.0 | 0.0 | 0.00 | 0.00 | 0.00 | 100 | 1025.4 |
| 20260506184558 | 25 | 0 | 0.0 | 0.0 | 0.00 | 0.00 | 0.00 | 100 | 1025.5 |
| 20260506184052 | 25 | 0 | 0.0 | 0.0 | 0.00 | 0.00 | 0.00 | 100 | 1025.4 |
| 20260506183552 | 25 | 0 | 0.0 | 0.0 | 0.00 | 0.00 | 0.00 | 100 | 1025.3 |
| 20260506183104 | 25 | 0 | 0.0 | 0.0 | 0.00 | 0.00 | 0.00 | 100 | 1025.2 |
| 20260506182551 | 25 | 0 | 0.0 | 0.0 | 0.00 | 0.00 | 0.00 | 100 | 1025.2 |
| 20260506182051 | 25 | 0 | 0.0 | 0.0 | 0.00 | 0.00 | 0.00 | 100 | 1025.1 |
| 20260506181603 | 24 | 0 | 0.0 | 0.0 | 0.00 | 0.00 | 0.00 | 100 | 1025.0 |
| 20260506181052 | 24 | 0 | 0.0 | 0.0 | 0.00 | 0.00 | 0.00 | 100 | 1025.0 |
| 20260506180554 | 23 | 0 | 0.0 | 0.0 | 0.00 | 0.00 | 0.00 | 100 | 1024.8 |
| 20260506180054 | 23 | 0 | 0.0 | 0.0 | 0.00 | 0.00 | 0.00 | 100 | 1024.7 |
| 20260506175550 | 23 | 0 | 0.0 | 0.0 | 0.00 | 0.00 | 0.00 | 100 | 1024.6 |
| 20260506175055 | 22 | 0 | 0.0 | 0.0 | 0.00 | 0.00 | 0.00 | 100 | 1024.6 |
| 20260506174555 | 22 | 0 | 0.0 | 0.0 | 0.00 | 0.00 | 0.00 | 100 | 1024.5 |
| 20260506174053 | 21 | 0 | 0.0 | 0.0 | 0.00 | 0.00 | 0.00 | 100 | 1024.5 |
| 20260506173552 | 21 | 0 | 0.0 | 0.0 | 0.00 | 0.00 | 0.00 | 100 | 1024.6 |
| 20260506173116 | 20 | 0 | 0.0 | 0.0 | 0.00 | 0.00 | 0.00 | 100 | 1024.5 |
| 20260506172550 | 20 | 0 | 0.0 | 0.0 | 0.00 | 0.00 | 0.00 | 100 | 1024.4 |
| 20260506172053 | 20 | 0 | 0.0 | 0.0 | 0.00 | 0.00 | 0.00 | 100 | 1024.4 |
| 20260506171556 | 19 | 0 | 0.0 | 1.6 | 0.00 | 0.00 | 0.00 | 100 | 1024.4 |
| 20260506171048 | 19 | 0 | 0.0 | 3.2 | 0.00 | 0.00 | 0.00 | 100 | 1024.2 |
| 20260506170550 | 18 | 0 | 0.0 | 3.2 | 0.00 | 0.00 | 0.00 | 100 | 1024.2 |
| 20260506170106 | 18 | 190 | 1.6 | 3.2 | 0.00 | 0.00 | 0.00 | 100 | 1024.1 |
| 20260506165549 | 18 | 190 | 1.6 | 3.2 | 0.00 | 0.00 | 0.00 | 100 | 1024.2 |
| 20260506165050 | 18 | 190 | 1.6 | 3.2 | 0.00 | 0.00 | 0.00 | 100 | 1024.1 |
| 20260506164549 | 18 | 190 | 1.6 | 3.2 | 0.00 | 0.00 | 0.00 | 100 | 1024.1 |
| 20260506164049 | 18 | 190 | 1.6 | 3.2 | 0.00 | 0.00 | 0.00 | 100 | 1024.0 |
| 20260506163547 | 18 | 190 | 1.6 | 3.2 | 0.00 | 0.00 | 0.00 | 100 | 1023.9 |
| 20260506163057 | 18 | 190 | 0.0 | 3.2 | 0.00 | 0.00 | 0.00 | 100 | 1023.9 |
| 20260506162549 | 18 | 0 | 1.6 | 3.2 | 0.00 | 0.00 | 0.00 | 100 | 1023.8 |
| 20260506162049 | 18 | 190 | 1.6 | 3.2 | 0.00 | 0.00 | 0.00 | 100 | 1023.7 |
| 20260506161548 | 18 | 190 | 1.6 | 3.2 | 0.00 | 0.00 | 0.00 | 100 | 1023.5 |
| 20260506161049 | 18 | 190 | 1.6 | 3.2 | 0.00 | 0.00 | 0.00 | 100 | 1023.5 |
| 20260506160549 | 18 | 190 | 1.6 | 4.8 | 0.00 | 0.00 | 0.00 | 100 | 1023.4 |
| 20260506160052 | 18 | 190 | 1.6 | 4.8 | 0.00 | 0.00 | 0.00 | 100 | 1023.5 |
| 20260506155553 | 18 | 190 | 1.6 | 4.8 | 0.00 | 0.00 | 0.00 | 100 | 1023.5 |
| 20260506155050 | 18 | 190 | 1.6 | 4.8 | 0.00 | 0.00 | 0.00 | 100 | 1023.3 |
| 20260506154609 | 18 | 190 | 1.6 | 4.8 | 0.00 | 0.00 | 0.00 | 100 | 1023.3 |
| 20260506154048 | 18 | 190 | 3.2 | 4.8 | 0.00 | 0.00 | 0.00 | 100 | 1023.2 |
| 20260506153549 | 18 | 190 | 1.6 | 4.8 | 0.00 | 0.00 | 0.00 | 100 | 1023.2 |
| 20260506153054 | 18 | 190 | 1.6 | 4.8 | 0.00 | 0.00 | 0.00 | 100 | 1023.1 |
| 20260506152550 | 18 | 190 | 3.2 | 4.8 | 0.00 | 0.00 | 0.00 | 100 | 1023.1 |
| 20260506152047 | 18 | 189 | 3.2 | 4.8 | 0.00 | 0.00 | 0.00 | 100 | 1023.0 |
| 20260506151559 | 18 | 190 | 3.2 | 4.8 | 0.00 | 0.00 | 0.00 | 100 | 1023.1 |
| 20260506151047 | 18 | 190 | 1.6 | 6.4 | 0.00 | 0.00 | 0.00 | 100 | 1023.0 |
| 20260506150549 | 18 | 190 | 1.6 | 6.4 | 0.00 | 0.00 | 0.00 | 100 | 1023.0 |
| 20260506150059 | 18 | 189 | 3.2 | 6.4 | 0.00 | 0.00 | 0.00 | 100 | 1023.0 |
| 20260506145547 | 18 | 189 | 3.2 | 6.4 | 0.00 | 0.00 | 0.00 | 100 | 1022.8 |
| 20260506145049 | 18 | 189 | 3.2 | 6.4 | 0.00 | 0.00 | 0.00 | 100 | 1022.7 |
| 20260506144603 | 18 | 189 | 3.2 | 6.4 | 0.00 | 0.00 | 0.00 | 100 | 1022.6 |
| 20260506144052 | 18 | 189 | 3.2 | 4.8 | 0.00 | 0.00 | 0.00 | 100 | 1022.6 |
| 20260506143549 | 18 | 189 | 3.2 | 4.8 | 0.00 | 0.00 | 0.00 | 100 | 1022.5 |
| 20260506143055 | 18 | 189 | 3.2 | 6.4 | 0.00 | 0.00 | 0.00 | 100 | 1022.6 |
| 20260506142549 | 18 | 189 | 1.6 | 6.4 | 0.00 | 0.00 | 0.00 | 100 | 1022.7 |
| 20260506142048 | 18 | 189 | 3.2 | 6.4 | 0.00 | 0.00 | 0.00 | 100 | 1022.6 |
| 20260506141600 | 18 | 197 | 0.0 | 3.2 | 0.00 | 0.00 | 0.00 | 100 | 1022.7 |
| 20260506141053 | 18 | 0 | 0.0 | 3.2 | 0.00 | 0.00 | 0.00 | 100 | 1022.6 |
| 20260506140551 | 18 | 0 | 1.6 | 3.2 | 0.00 | 0.00 | 0.00 | 100 | 1022.6 |
| 20260506140057 | 18 | 197 | 1.6 | 3.2 | 0.00 | 0.00 | 0.00 | 100 | 1022.5 |
| 20260506135549 | 18 | 197 | 1.6 | 4.8 | 0.00 | 0.00 | 0.00 | 100 | 1022.6 |
| 20260506135049 | 18 | 197 | 1.6 | 4.8 | 0.00 | 0.00 | 0.00 | 100 | 1022.6 |
| 20260506134556 | 18 | 197 | 1.6 | 3.2 | 0.00 | 0.00 | 0.00 | 100 | 1022.6 |
| 20260506134052 | 18 | 197 | 0.0 | 1.6 | 0.00 | 0.00 | 0.00 | 100 | 1022.6 |
| 20260506133551 | 18 | 0 | 0.0 | 0.0 | 0.00 | 0.00 | 0.00 | 100 | 1022.7 |
| 20260506133128 | 18 | 0 | 0.0 | 0.0 | 0.00 | 0.00 | 0.00 | 100 | 1022.7 |
| 20260506132549 | 18 | 0 | 0.0 | 0.0 | 0.00 | 0.00 | 0.00 | 100 | 1022.8 |
| 20260506132052 | 18 | 0 | 0.0 | 0.0 | 0.00 | 0.00 | 0.00 | 100 | 1022.8 |
| 20260506131559 | 18 | 0 | 0.0 | 0.0 | 0.00 | 0.00 | 0.00 | 100 | 1022.7 |
| 20260506131049 | 19 | 0 | 0.0 | 0.0 | 0.00 | 0.00 | 0.00 | 100 | 1022.8 |
| 20260506130549 | 19 | 0 | 0.0 | 0.0 | 0.00 | 0.00 | 0.00 | 100 | 1022.9 |
| 20260506130121 | 19 | 0 | 0.0 | 0.0 | 0.00 | 0.00 | 0.00 | 100 | 1022.9 |
| 20260506125549 | 19 | 0 | 0.0 | 0.0 | 0.00 | 0.00 | 0.00 | 100 | 1023.0 |